Home   Weather   Vieques   Past weeks
Flag for Puerto Rico

Past Weather in Vieques, Puerto Rico — Yesterday and Last 2 Weeks

Now
82 °F

Passing clouds.


Feels Like: 90 °F
Forecast: 89 / 81 °F
Wind: 6 mph from Southeast

Location: Luis Munoz Marin

Current Time: Jul 13, 2020 at 2:30:57 am

Latest Report: Jul 13, 2020 at 1:56 am


Visibility: 10 mi

Pressure: 30.01 "Hg

Humidity: 85%

Dew Point: 77 °F

Location of ViequesLocation

Past Weather in Vieques — Graph

°F

Vieques Temperature Yesterday

Maximum temperature yesterday: 88 °F (at 11:56 am)
Minimum temperature yesterday: 77 °F (at 2:03 am)
Average temperature yesterday: 82 °F

High & Low Weather Summary for the Past Weeks

 TemperatureHumidityPressure
High92 °F (Jul 3, 1:56 pm)96% (Jul 12, 2:03 am)30.08 "Hg (Jul 12, 2:03 am)
Low77 °F (Jul 12, 2:03 am)57% (Jul 3, 2:56 pm)29.94 "Hg (Jun 30, 2:56 pm)
Average84 °F77%30.00 "Hg
* Reported Jun 28 12:56 am — Jul 13 12:56 am, Vieques. Weather by CustomWeather, © 2020

Note: Actual official high and low records may vary slightly from our data, if they occured in-between our weather recording intervals... More about our weather records

Vieques Weather History for the Previous 24 Hours

Scroll right to see more
 ConditionsComfort  
Time TempWeatherWind HumidityBarometerVisibility
12:56 am
Mon, Jul 13
82 °FPassing clouds.8 mph85%30.03 "Hg10 mi
11:56 pm
Sun, Jul 12
81 °FPassing clouds.8 mph91%30.05 "Hg10 mi
10:56 pm82 °FPassing clouds.7 mph88%30.06 "Hg10 mi
9:56 pm83 °FPassing clouds.8 mph88%30.05 "Hg10 mi
8:56 pm82 °FPassing clouds.8 mph91%30.03 "Hg10 mi
7:56 pm84 °FLight rain. Scattered clouds.9 mph85%30.01 "Hg10 mi
6:56 pm84 °FScattered clouds.9 mph85%29.99 "Hg10 mi
5:56 pm86 °FScattered clouds.15 mph77%29.98 "Hg10 mi
4:56 pm87 °FBroken clouds.15 mph80%29.98 "Hg10 mi
3:56 pm87 °FBroken clouds.15 mph75%29.98 "Hg10 mi
2:56 pm86 °FBroken clouds.18 mph80%29.99 "Hg10 mi
1:56 pm87 °FScattered clouds.17 mph75%30.01 "Hg10 mi
12:56 pm87 °FScattered clouds.14 mph77%30.02 "Hg10 mi
11:56 am88 °FScattered clouds.14 mph73%30.04 "Hg10 mi
10:56 am85 °FBroken clouds.10 mph80%30.05 "Hg10 mi
9:56 am80 °FBroken clouds.5 mph87%30.06 "Hg10 mi
8:56 am79 °FBroken clouds.No wind94%30.05 "Hg10 mi
7:56 am79 °FBroken clouds.No wind90%30.06 "Hg10 mi
6:56 am78 °FBroken clouds.3 mph93%30.05 "Hg10 mi
5:56 am78 °FPassing clouds.5 mph93%30.02 "Hg10 mi
4:56 am78 °FThunderstorms. Partly cloudy.6 mph93%30.01 "Hg9 mi
4:32 am77 °FThunderstorms. Partly cloudy.5 mph96%30.01 "Hg9 mi
3:56 am77 °FRain. Fog.5 mph96%30.00 "Hg6 mi
2:56 am77 °FThunderstorms. Partly cloudy.No wind94%30.01 "Hg10 mi
2:17 am77 °FThunderstorms. Fog.6 mph96%29.99 "Hg4 mi
2:03 am77 °FStrong thunderstorms. Fog.6 mph96%30.01 "Hg1 mi
Weather by CustomWeather, © 2020

See weather overview